Dewpoint
60 60 60 60 60 60 60 60 61 61 61 60 60 60 61 60 61 60 60 60 59 61 59 60 61 61 61 60 58 58 61 57 56 55 51 43 49 52 58 59 65 66 59 41 34 24 23 23 25 30 33 32 35 32 36 36 34 38 27 24 23 25 22 24 19 21 23 16 20 21 23 22 20 19 21 24 22 24 28 28 33 39 45 49 54 55 55 63
60 60 60 59 60 60 60 60 60 60 60 60 60 59 60 60 60 60 60 60 60 60 59 59 60 61 61 61 59 60 60 55 52 52 50 52 55 62 63 66 67 65 52 35 30 24 22 21 25 30 30 28 37 31 33 31 34 31 29 26 21 25 22 22 19 19 16 15 19 20 22 22 20 20 21 20 20 22 21 24 28 33 42 50 55 55 60 63
60 60 60 59 59 59 60 60 60 60 60 60 60 60 60 60 60 60 60 60 60 59 60 60 60 60 60 60 60 61 58 53 46 40 45 54 61 64 67 66 66 64 36 32 29 23 23 20 27 28 28 24 26 26 33 27 33 27 30 21 23 30 20 22 20 20 19 19 19 20 21 20 19 20 21 19 20 22 18 18 25 26 29 43 55 58 61 63
60 60 60 59 59 61 60 60 60 60 60 60 59 59 60 60 60 59 59 60 60 59 59 60 60 60 60 61 62 61 54 39 30 33 40 56 59 65 66 66 66 60 37 31 28 24 25 26 28 26 26 22 26 29 24 27 29 28 26 21 24 23 19 19 21 20 20 21 20 20 19 19 18 20 20 19 17 18 18 20 17 19 23 41 53 59 61 63
59 59 59 60 61 61 60 60 60 59 59 59 60 60 59 59 59 59 59 59 59 59 59 59 60 60 60 61 61 57 45 26 31 36 37 60 65 66 66 65 64 49 36 26 24 24 22 24 26 26 25 18 27 22 21 23 27 26 20 21 22 23 20 20 21 22 21 21 20 19 19 19 19 19 19 19 14 10 12 20 22 21 28 44 53 58 60 61
59 59 59 60 60 60 60 60 60 59 59 59 59 59 59 59 59 59 58 58 59 59 59 59 60 60 60 60 59 54 34 29 35 45 59 64 65 66 65 65 60 40 28 26 24 24 23 24 26 24 20 20 22 18 19 20 23 17 19 20 22 21 18 21 22 23 21 19 19 19 18 18 18 18 18 19 17 16 19 21 23 21 28 48 53 58 59 59
59 59 59 60 60 60 59 58 59 59 59 59 59 58 58 58 58 58 58 58 58 58 58 59 59 59 60 59 54 49 28 24 37 48 58 65 66 65 65 62 55 31 27 25 23 23 22 23 24 22 22 23 20 19 20 21 21 21 18 20 21 23 21 22 21 23 20 19 18 18 18 17 18 16 19 18 19 18 18 26 29 22 39 53 54 57 58 58
58 58 59 59 59 59 59 59 59 58 59 58 58 57 57 57 57 57 57 57 57 58 58 58 59 59 58 53 45 38 33 22 34 49 61 65 62 59 53 44 32 31 25 24 23 22 22 21 22 22 18 14 18 20 21 19 18 19 18 21 22 22 22 22 21 20 19 20 19 18 17 17 18 18 18 17 18 19 19 30 42 39 48 53 54 56 58 58
58 58 58 58 58 58 58 59 58 58 59 58 57 57 57 57 56 57 57 57 57 57 58 58 59 59 56 45 35 31 28 42 43 49 62 59 52 43 42 38 33 27 25 23 22 23 23 22 22 19 14 16 20 19 20 17 15 20 19 22 22 21 21 22 21 21 20 19 19 17 19 20 19 21 18 17 19 20 24 38 48 51 48 52 53 55 57 58
58 58 58 58 58 58 58 58 58 58 57 57 57 57 57 56 56 56 56 56 57 57 57 58 59 59 55 39 33 20 36 44 47 50 56 54 45 39 38 39 31 28 24 22 20 24 23 24 21 20 18 18 20 19 21 17 13 21 21 21 21 21 22 23 20 21 22 21 20 17 18 19 19 18 10 18 20 23 32 41 48 51 43 50 52 55 56 57
58 58 58 58 58 58 58 58 58 58 57 57 56 56 55 55 55 56 55 56 56 57 57 58 59 58 49 32 22 18 46 49 47 45 50 49 41 36 37 38 32 28 27 27 21 22 25 25 27 20 22 15 19 18 19 17 21 21 20 19 19 20 21 21 21 21 22 19 24 18 17 19 20 19 14 17 20 24 26 39 49 49 45 49 53 54 56 56
57 57 57 58 58 58 58 57 57 57 57 56 55 55 55 55 55 55 56 56 56 57 57 58 59 53 31 22 20 25 39 46 45 44 47 43 39 41 46 36 32 42 29 25 30 33 30 26 23 13 7 19 16 19 18 21 21 20 19 16 18 18 18 20 20 22 25 20 24 23 17 16 20 16 21 20 18 21 26 32 45 49 48 48 52 53 55 56
57 57 57 57 57 57 57 57 57 57 57 56 55 55 55 55 55 55 56 56 56 57 58 59 58 51 36 20 23 35 43 46 43 42 43 44 41 40 41 41 39 34 34 26 29 38 33 24 18 15 21 18 18 14 19 21 20 18 17 16 15 14 14 20 22 22 20 21 20 17 8 9 14 15 17 16 21 20 21 23 27 38 43 46 49 51 52 55
56 56 57 57 57 57 57 57 57 56 56 55 55 55 55 55 55 55 56 56 56 57 58 58 56 50 32 18 42 45 42 46 41 39 40 41 37 41 36 38 37 36 43 37 36 32 25 22 23 20 23 19 17 24 17 17 18 15 16 18 18 14 13 19 23 23 16 20 17 10 12 6 4 8 17 23 24 20 18 19 20 23 28 38 45 48 50 52
56 56 56 56 56 56 56 56 56 56 55 55 55 55 55 55 55 55 56 57 56 57 58 55 53 41 21 19 35 43 55 42 38 40 42 37 34 35 34 35 36 35 34 32 30 30 25 29 22 18 18 22 21 18 15 15 15 14 11 14 20 17 16 15 26 24 14 21 19 9 15 7 7 10 13 22 23 21 18 18 19 20 21 22 30 39 43 46
56 56 56 56 56 56 56 56 56 55 55 55 55 55 56 56 55 55 55 56 57 57 57 51 49 37 19 16 38 55 40 36 37 43 45 41 43 35 36 34 33 30 29 27 30 28 29 27 20 20 19 19 17 16 16 17 16 14 15 27 20 18 15 11 20 25 26 22 18 13 7 4 8 20 20 21 22 22 20 18 21 22 23 23 21 24 29 36
56 56 56 56 56 56 56 56 55 55 55 55 55 55 56 56 55 55 56 57 57 56 55 42 45 37 15 25 41 37 36 40 43 44 41 40 39 35 33 32 29 28 28 27 30 30 28 21 24 23 20 15 17 17 17 20 18 16 21 16 27 13 11 8 21 24 29 23 14 18 11 6 19 21 19 19 22 21 20 19 19 22 23 24 27 24 22 23
56 56 55 55 55 55 55 55 55 56 55 55 54 55 54 55 56 57 56 55 55 54 52 47 41 26 15 31 32 34 39 38 44 40 42 37 36 31 30 28 28 26 25 22 24 20 26 20 25 17 19 18 16 15 18 12 17 16 14 18 15 16 14 10 12 20 22 22 18 19 16 14 12 14 16 19 22 22 21 20 21 22 23 23 25 24 24 24
56 56 55 55 55 55 55 55 56 56 55 55 55 55 56 57 56 52 51 49 33 31 28 31 24 16 17 19 34 39 41 42 41 39 33 33 35 33 31 29 28 24 24 19 20 22 28 27 29 21 17 17 13 9 6 16 15 16 16 12 17 14 12 9 14 22 24 20 17 18 15 13 14 16 17 21 22 22 22 23 24 24 23 23 23 26 27 30
56 55 55 55 55 55 55 55 56 55 55 54 54 54 52 45 42 40 43 39 28 28 29 27 26 29 29 33 36 37 42 43 33 37 39 41 32 29 27 27 35 26 22 22 27 24 34 21 20 20 17 16 15 16 15 17 14 17 22 23 14 12 14 16 22 23 23 21 18 18 19 19 19 19 19 21 23 24 24 23 24 25 25 26 26 24 29 30
56 56 56 55 54 55 55 55 55 54 55 52 53 47 36 35 31 31 39 35 33 34 33 26 28 29 30 37 40 34 32 33 36 37 40 40 34 26 25 26 24 23 26 28 26 27 23 20 21 20 17 15 15 16 16 15 15 13 14 16 15 24 6 20 22 23 22 21 19 20 20 21 20 19 20 21 20 20 20 21 22 21 22 24 27 28 32 28
56 56 55 55 54 55 54 54 54 54 54 53 53 38 35 33 37 39 31 26 32 37 36 37 37 37 38 37 40 36 41 32 33 38 41 39 29 25 25 24 22 20 28 28 24 22 21 19 19 20 19 18 18 16 16 15 16 19 11 20 18 15 23 22 23 23 22 19 16 20 19 19 19 20 21 21 21 22 21 22 22 22 25 26 26 28 28 29
56 55 55 55 55 54 54 54 54 54 53 52 50 47 43 41 46 46 41 30 28 36 34 36 33 35 34 35 36 37 30 29 29 35 35 37 28 26 25 22 22 25 25 22 20 24 22 21 21 20 19 17 17 18 17 20 21 17 19 15 10 23 15 11 22 24 21 21 19 23 20 18 17 18 20 22 20 21 23 21 23 26 25 25 24 25 28 28
56 55 55 55 54 54 53 53 54 54 52 52 50 48 48 49 46 37 35 28 29 33 36 33 37 35 33 32 37 28 27 27 31 31 39 31 25 29 24 22 23 23 20 20 20 18 19 21 23 19 19 16 15 17 14 12 11 26 27 21 22 21 19 20 17 22 18 18 20 18 20 14 18 12 10 14 15 15 17 16 19 22 28 25 29 29 28 22
55 54 54 54 54 53 53 53 52 51 52 52 51 51 50 51 47 38 29 23 27 33 38 39 44 39 35 44 43 24 28 32 33 35 40 31 27 24 22 25 22 21 21 22 21 21 18 25 23 19 21 20 19 15 25 21 15 19 27 24 17 17 18 21 22 19 18 19 18 17 7 10 15 18 12 12 14 12 16 16 20 25 29 31 32 36 38 39
54 54 54 54 53 53 53 49 50 51 51 49 50 51 51 51 49 43 28 24 18 24 36 27 40 31 42 34 38 31 29 26 32 36 43 40 36 25 25 23 24 20 22 20 17 23 20 25 24 20 21 27 23 17 27 25 17 19 10 25 21 19 25 25 24 25 15 8 19 18 9 8 16 10 8 10 15 13 13 23 24 26 28 31 34 36 37 38
54 54 54 54 53 53 48 46 51 51 47 48 50 52 51 50 48 38 26 21 15 30 24 31 33 35 42 35 34 27 18 26 37 37 34 40 29 31 22 22 24 25 23 24 21 17 23 21 23 26 24 27 23 16 22 19 19 9 30 28 25 26 28 27 23 26 20 24 23 22 18 9 10 10 16 14 13 10 13 22 25 25 25 28 30 33 37 38
54 54 54 54 53 52 48 49 50 48 47 47 51 51 51 50 40 35 29 9 13 33 25 23 29 39 40 32 37 19 27 33 29 32 36 39 34 25 22 22 21 23 24 20 14 29 23 25 26 25 27 22 16 25 30 23 16 18 27 29 27 24 29 30 24 19 21 17 14 16 27 7 6 14 15 13 5 8 12 20 22 24 26 27 30 32 35 36
54 54 54 54 53 53 52 49 48 48 49 49 50 51 51 47 38 22 23 11 31 21 37 22 43 37 30 30 28 30 30 34 26 31 40 34 34 26 19 24 26 27 28 24 20 27 29 29 25 25 23 18 29 28 26 29 21 26 27 28 26 27 27 28 20 20 18 11 13 15 19 15 5 27 15 12 8 6 12 19 21 22 23 27 29 32 33 34
54 54 53 53 53 52 52 50 48 50 50 50 51 48 44 34 18 16 12 13 28 17 24 27 30 30 27 23 28 29 27 31 34 33 31 27 29 29 28 29 25 26 32 32 33 31 30 33 34 26 22 30 28 28 33 30 28 29 29 23 25 27 24 20 19 13 14 11 12 18 16 10 3 19 9 14 14 5 15 18 19 22 27 25 29 29 33 33
54 54 53 53 51 52 50 48 49 51 51 50 46 44 35 32 22 12 13 21 28 27 25 25 28 30 23 23 24 30 31 32 31 30 26 28 25 27 26 25 29 30 31 32 31 33 30 31 32 33 32 31 28 28 28 29 30 30 25 22 20 21 21 17 17 16 12 8 9 13 16 18 4 5 16 12 10 11 17 18 19 21 22 27 29 28 31 32
54 54 54 52 53 53 48 47 51 52 51 47 44 39 19 15 18 11 13 21 17 23 25 23 26 28 24 27 33 30 28 31 31 28 25 26 27 22 23 22 26 23 20 22 24 32 29 29 30 32 35 28 32 24 24 27 29 26 23 19 16 15 17 11 15 12 9 8 18 12 18 10 9 5 5 6 7 8 12 18 19 19 20 26 27 30 32 36
54 53 54 54 53 53 53 52 52 51 48 44 41 30 18 18 10 14 19 20 20 25 20 29 27 27 26 27 28 31 34 27 30 28 31 31 26 28 31 24 32 27 17 25 27 26 25 34 32 32 31 30 31 20 21 20 23 22 18 17 13 12 11 11 12 11 9 11 8 15 16 6 12 9 12 8 7 8 11 16 25 20 20 24 27 31 32 37
54 54 54 54 54 55 52 52 51 50 46 42 31 25 25 15 14 35 22 22 24 26 25 28 29 28 25 24 30 32 25 29 29 28 29 28 25 25 25 26 25 29 31 27 22 24 20 18 24 30 25 32 28 26 23 22 23 19 33 22 18 18 15 10 8 6 12 14 12 13 14 16 9 3 13 13 15 16 15 16 22 25 26 28 30 31 32 35
54 54 54 54 54 53 51 51 51 50 45 37 25 22 16 13 21 19 20 24 28 25 27 31 28 28 26 32 31 31 32 29 32 29 29 26 24 26 24 22 28 31 32 20 25 22 23 21 27 31 32 31 30 31 29 27 25 26 27 24 16 19 20 7 12 13 14 11 13 17 9 12 9 14 18 17 16 16 17 20 22 21 21 27 28 33 33 33
53 53 54 51 52 52 51 51 51 49 41 32 22 20 18 19 17 28 22 28 27 28 28 29 30 25 26 29 31 31 34 33 29 30 29 29 31 25 28 27 26 28 21 17 26 16 17 14 32 35 31 28 31 31 26 29 18 24 20 18 19 24 17 13 14 9 11 9 6 21 14 18 14 6 9 14 12 13 14 14 16 19 22 29 33 34 33 35
51 52 49 51 51 52 52 51 50 46 40 31 21 18 24 29 36 31 32 27 28 28 28 24 26 23 24 24 27 29 29 34 32 30 25 31 23 27 28 28 32 27 25 28 24 32 19 23 30 32 29 29 32 30 29 29 29 23 17 21 26 28 27 14 6 13 10 5 12 13 9 2 -0 3 15 13 15 13 13 14 16 21 27 30 34 35 35 36
50 50 50 49 51 52 52 51 49 45 41 33 22 30 34 30 33 35 36 32 31 28 24 21 27 31 23 24 25 27 30 28 28 27 27 25 22 30 27 25 27 26 25 28 22 27 29 18 27 30 31 32 33 32 25 30 30 24 26 31 20 12 11 6 14 9 8 9 7 2 6 6 9 5 3 9 13 13 13 16 17 19 25 31 33 33 34 35
50 49 44 47 52 53 52 51 47 41 35 27 22 25 34 38 39 36 32 28 34 29 24 25 25 28 26 24 26 27 28 23 29 27 25 27 21 27 25 29 30 27 26 23 22 27 35 25 23 31 30 31 32 31 23 25 25 28 24 18 26 19 17 11 10 20 10 10 10 17 2 3 18 7 5 3 11 15 11 16 15 18 26 29 31 33 34 36
48 45 42 47 52 53 52 49 44 43 36 24 23 33 38 36 36 37 36 28 29 27 28 28 31 24 28 26 27 24 29 27 27 27 27 29 23 22 25 29 27 29 23 22 29 33 21 30 22 28 33 31 25 27 25 24 21 15 15 13 23 20 20 17 9 12 10 8 5 4 4 4 13 12 8 5 5 12 13 17 21 21 28 30 32 34 35 36
46 44 41 50 51 52 51 45 42 37 32 36 37 36 37 37 38 36 38 38 39 36 34 34 30 22 27 28 26 28 27 28 28 25 27 26 20 18 25 26 29 27 25 32 31 28 25 16 24 27 26 24 27 30 29 31 26 19 17 15 18 18 15 12 12 8 14 8 6 3 5 18 16 14 10 7 9 12 18 20 22 24 27 31 35 35 36 36
43 38 40 49 51 51 45 39 40 41 39 30 28 38 35 42 38 38 37 37 40 39 36 32 35 36 30 27 27 28 27 25 27 26 28 26 25 22 30 26 26 26 23 20 20 30 29 30 29 26 28 27 28 30 30 30 30 25 21 19 25 22 19 13 10 17 15 10 12 13 5 8 16 15 16 14 14 12 14 20 21 24 29 32 34 36 37 36
42 39 46 49 51 48 43 39 40 36 37 38 39 38 41 41 39 38 37 38 37 38 41 39 29 30 30 34 30 29 26 26 28 25 27 28 27 22 33 26 26 26 27 24 28 25 32 29 26 22 27 30 29 30 33 31 31 26 25 29 24 19 19 15 13 21 12 12 9 11 7 10 21 25 19 18 19 20 17 15 21 24 28 31 33 35 35 34
41 41 43 48 50 49 42 34 33 35 38 38 41 39 39 40 39 37 38 39 39 38 38 38 31 33 29 34 30 26 28 24 31 29 27 31 27 34 27 26 25 27 24 23 20 32 21 25 25 23 23 23 23 27 28 31 30 25 22 26 27 29 27 21 24 21 13 18 13 9 6 8 24 24 26 23 23 21 19 17 22 27 30 33 32 34 34 33
40 42 43 46 49 47 40 42 37 36 37 37 38 38 38 39 41 38 40 38 40 39 37 33 32 35 33 35 32 33 32 31 28 31 36 33 28 37 34 30 29 25 36 37 36 30 25 27 24 20 19 18 18 19 22 24 25 27 30 29 28 24 23 13 13 14 11 18 12 11 7 16 12 19 18 20 21 17 19 20 22 32 31 30 33 33 33 35
36 32 37 41 45 44 43 42 40 36 34 35 36 38 38 37 39 42 42 41 39 40 40 38 39 38 36 31 31 30 28 32 31 27 28 29 30 35 37 34 30 32 36 35 34 27 26 28 23 20 19 19 21 21 27 32 27 25 28 27 28 27 25 29 23 15 11 16 15 16 18 13 11 12 17 20 22 17 21 24 24 29 30 33 33 34 35 35
36 33 33 33 40 41 40 42 39 36 34 33 31 37 35 37 39 38 41 38 41 41 41 39 39 31 33 30 30 29 29 31 32 32 30 29 30 34 34 35 31 36 37 34 32 29 29 24 25 27 24 21 28 27 29 31 28 27 28 27 29 27 25 25 19 16 22 19 13 20 26 21 13 14 18 19 21 21 24 24 25 28 30 31 32 33 34 33
32 33 36 38 36 34 35 36 40 37 38 33 35 36 36 37 37 37 38 41 42 41 39 38 37 40 30 28 31 29 32 31 33 29 31 33 35 35 34 37 31 33 33 33 36 27 25 21 29 26 25 27 26 23 28 28 29 30 30 29 27 27 26 24 24 24 24 17 15 20 26 23 15 14 19 22 23 20 23 24 27 27 29 31 32 33 34 35
36 34 35 37 35 36 39 39 39 37 35 35 38 36 35 35 35 38 39 39 40 38 40 35 36 38 35 34 29 28 30 26 28 32 30 32 33 33 33 30 34 35 34 32 29 35 23 21 28 26 23 27 23 28 30 29 24 27 30 29 28 27 25 26 25 27 25 24 23 30 26 23 21 17 20 22 25 26 25 28 28 28 27 30 32 34 34 35
32 33 32 36 37 37 39 38 38 38 35 38 33 37 35 36 35 38 39 39 36 38 40 38 38 38 36 36 36 30 31 28 30 30 32 32 31 35 31 34 30 35 35 29 30 31 26 24 30 24 22 24 28 28 29 29 28 25 29 30 29 28 27 27 27 27 27 27 27 26 27 26 24 25 23 27 27 30 27 25 25 28 31 31 32 33 35 35
37 37 37 35 33 34 37 38 38 37 35 37 34 37 35 35 35 38 38 40 37 38 38 36 39 38 39 39 38 36 37 36 35 32 35 32 27 34 28 31 32 30 32 30 28 32 30 25 35 28 21 21 28 27 28 27 25 24 27 29 28 27 26 27 26 28 27 25 26 25 23 23 23 23 27 27 27 25 26 27 26 28 31 32 32 34 35 35
37 37 36 37 31 33 34 37 38 38 33 36 35 37 35 35 36 38 37 39 41 41 40 39 39 38 39 38 37 36 38 38 39 39 37 39 38 38 38 37 32 30 30 29 34 30 27 27 23 21 19 21 29 25 26 27 24 22 24 28 30 29 28 28 29 31 28 27 25 23 21 22 23 21 22 24 25 25 26 27 29 30 33 33 33 34 36 36